Hourly Data Report for October 17, 2016

All times are specified in Local Standard Time (LST). Add 1 hour to adjust for Daylight Saving Time where and when it is observed.

CLYDE RIVER A
NUNAVUT

70°29'09.000" N
68°31'01.000" W
26.50 m
2400804
71090
YCY

Download Data

Hourly Data (October 2016)
Hourly Data Report for October 17, 2016
Temp Definition
°C
Dew Point Temp Definition
°C
Rel Hum Definition
%
Wind Dir Definition
10's deg

Wind Spd Definition
km/h
Visibility Definition
km
Stn Press Definition
kPa
Hmdx Definition


Wind Chill Definition


Weather Definition


TIME
00:00 Legend Double Dagger -10.5 -15.5 67 28 11 16.1 101.10   -16 LegendNANA
01:00 Legend Double Dagger -9.9 -15.5 64 26 13 16.1 101.10   -16 LegendNANA
02:00 Legend Double Dagger -9.7 -15.5 63 27 9 16.1 101.11   -15 LegendNANA
03:00 Legend Double Dagger -9.5 -15.3 63 25 8 16.1 101.13   -14 LegendNANA
04:00 Legend Double Dagger -9.9 -15.0 67 26 5 16.1 101.12   -13 LegendNANA
05:00 Legend Double Dagger -10.0 -15.0 67   0 16.1 101.11     LegendNANA
06:00 Legend Double Dagger -11.3 -14.9 75 29 9 16.1 101.08   -16 LegendNANA
07:00 Legend Double Dagger -11.0 -14.9 73 29 5 16.1 101.04   -14 LegendNANA
08:00 Legend Double Dagger -9.4 -13.2 74 32 5 16.1 101.04   -12 LegendNANA
09:00 Legend Double Dagger -8.1 -12.1 73 27 11 16.1 101.01   -13 LegendNANA
10:00 Legend Double Dagger -8.3 -12.4 73   0 16.1 101.01     LegendNANA
11:00 Legend Double Dagger -8.6 -12.1 76 32 11 16.1 101.01   -14 LegendNANA
12:00 Legend Double Dagger -7.4 -11.1 75 28 5 16.1 101.02   -10 LegendNANA
13:00 Legend Double Dagger -6.7 -12.2 65 28 18 16.1 101.01   -13 LegendNANA
14:00 Legend Double Dagger -6.6 -12.0 66 28 21 16.1 101.02   -14 LegendNANA
15:00 Legend Double Dagger -7.3 -12.1 69   0 16.1 101.04     LegendNANA
16:00 Legend Double Dagger -7.5 -12.6 67 25 13 16.1 101.09   -13 LegendNANA
17:00 Legend Double Dagger -8.6 -12.1 76 32 5 16.1 101.10   -11 LegendNANA
18:00 Legend Double Dagger -8.8 -13.0 72 LegendMM 4 16.1 101.12   -11 LegendNANA
19:00 Legend Double Dagger -9.5 -15.5 62 28 9 16.1 101.12   -14 LegendNANA
20:00 Legend Double Dagger -11.4 -16.3 68 27 13 16.1 101.16   -18 LegendNANA
21:00 Legend Double Dagger -10.9 -16.5 64 24 9 16.1 101.20   -16 LegendNANA
22:00 Legend Double Dagger -11.3 -15.9 69 LegendMM 9 16.1 101.22   -16 LegendNANA
23:00 Legend Double Dagger -10.8 -16.5 63 27 9 16.1 101.24   -16 LegendNANA

Notes on Data Quality.

Legend

  • E = Estimated
  • M = Missing
  • NA = Not Available
  • ‡ = Partner data that is not subject to review by the National Climate Archives
Date modified: